Location: Gad�tanya
(48.0500°N, 20.8500°E)
Time: 22:55:50
(UTC+00:00)

COSMOS 2428 - Pass Details

Date: 05 July 2020
Orbit: 844 x 859 km, 70.9° (Epoch: 05 August)

Event Time Altitude Azimuth Distance (km) Brightness Sun altitude
Exits shadow 20:15:33 - 193° (SSW) 3,014 5.2 -12.1°
Reaches altitude 10° 20:17:01 10° 191° (S) 2,458 4.7 -12.2°
Maximum altitude 20:22:34 61° 112° (ESE) 953 2.7 -12.7°
Drops below altitude 10° 20:28:10 10° 34° (NNE) 2,478 5.5 -13.2°
Sets 20:30:38 0° 31° (NNE) 3,419 6.3 -13.4°
